Regional Weather Roundup
Issued by NWS

Home | Current Version | Previous Version | Text Only | Print | Product List | Glossary Off
Versions: 1 2 3 4 5 6 7 8 9 10 11 12 13 14 15 16 17 18 19 20 21 22 23 24 25 26 27 28 29 30 31 32 33 34 35 36 37 38 39 40 41 42 43 44 45 46 47 48 49 50

000
ASUS43 KFSD 252202
RWRSD

WEATHER ROUNDUP FOR SOUTH DAKOTA
NATIONAL WEATHER SERVICE SIOUX FALLS SD
500 PM CDT MON SEP 25 2017

NOTE: "FAIR" INDICATES FEW OR NO CLOUDS BELOW 12,000 FEET WITH NO
SIGNIFICANT WEATHER AND/OR OBSTRUCTIONS TO VISIBILITY.


SDZ001>005-009-010-012>017-252300-
NORTHWEST AND NORTH CENTRAL SOUTH DAKOTA

CITY           SKY/WX    TMP DP  RH WIND       PRES   REMARKS
FAITH            N/A     51  42  71 NE7       30.10F
MOBRIDGE       CLOUDY    53  45  74 NE7       30.09S
$$

SDZ012>016-024>037-041>051-057-063-072>074-252300-
SOUTHWEST AND SOUTH CENTRAL SOUTH DAKOTA

CITY           SKY/WX    TMP DP  RH WIND       PRES   REMARKS
RAPID CTY ARPT CLOUDY    52  43  71 E7        30.09S
PIERRE         CLOUDY    53  44  71 N10       30.08S
CUSTER         CLOUDY    46  35  65 SW5       30.09S
ELLSWORTH AFB  CLOUDY    53  44  72 E7        30.08
PHILIP         CLOUDY    56  43  61 N8        30.10R
PINE RIDGE     CLOUDY    52  42  69 N6        30.10S
SPEARFISH      CLOUDY    46  45  93 E8        30.09F
WINNER         CLOUDY    53  46  77 N10       30.08S
$$

SDZ004>011-016>023-039-040-252300-
NORTHEAST SOUTH DAKOTA

CITY           SKY/WX    TMP DP  RH WIND       PRES   REMARKS
ABERDEEN       CLOUDY    52  47  83 NE12      30.08F
WATERTOWN      CLOUDY    50  48  93 N13       30.03S
BROOKINGS      LGT RAIN  52  49  89 N13       30.03R
SISSETON         N/A     52  48  86 N13       30.06S
$$

SDZ017-020-022-023-036>040-048>070-252300-
SOUTHEAST SOUTH DAKOTA

CITY           SKY/WX    TMP DP  RH WIND       PRES   REMARKS
SIOUX FALLS    LGT RAIN  55  54  96 N8        30.00R
HURON          CLOUDY    53  48  83 N8        30.06R
CHAMBERLAIN    CLOUDY    55  48  80 N8        30.08R
MITCHELL       LGT RAIN  53  51  93 N9        30.05R
YANKTON        CLOUDY    54  52  93 NW14      30.01S
$$

ABBREVIATIONS USED IN REMARKS
   TC - TEMPERATURE IN CELSIUS
  WCI - WIND CHILL INDEX
   HX - HEAT INDEX
  VSB - VISIBILITY




USA.gov is the U.S. government's official web portal to all federal, state and local government web resources and services.